Location: Huntsville
(41.2590°N, 111.7678°W)
Time: 20:41:52
(UTC+00:00)

Explorer 7 - Pass Details

Date: 17 June 2021
Orbit: 484 x 676 km, 50.3° (Epoch: 30 July)

Event Time Altitude Azimuth Distance (km) Brightness Sun altitude
Rises 11:05:19 0° 302° (WNW) 2,908 10.3 -8.1°
Reaches altitude 10° 11:07:42 10° 303° (WNW) 1,968 9.5 -7.7°
Maximum altitude 11:12:13 89° 36° (NE) 588 7.0 -7.1°
Drops below altitude 10° 11:16:25 10° 124° (ESE) 1,834 9.7 -6.5°
Sets 11:18:35 0° 124° (SE) 2,693 10.6 -6.2°
